www.pogodaiklimat.ru

Погода и климат >> Архив погоды >> Гана >> Тамале


ПОГОДА в Тамале

  • Прогноз погоды в Тамале
  • Монитор погоды в Тамале

АРХИВ ПОГОДЫ в Тамале

Время (UTC), дата Ветер
(напр.,м/с)
 
Видим.   Явления Облачность Т
(С)
Тd
(С)
f
(%)
Тe
(С)
Тes
(С)
Комфортность P
(гПа)
Po
(гПа)
Тmin
(С)
Tmax
(С)
R
(мм)
R24
(мм)
S
(см)
09 9.01 СВ 5 6000 м мгла 1/0
[Ci sp]
+27.0 +0.6 18 +25 +29 комфорт 1012.6 1013.0
15 9.01 СВ 1 5000 м мгла ясно +38.0 +9.4 18 +36 +46 очень
жарко
1006.7 1007.0
18 9.01 СЗ 1 3000 м мгла 3/0
[Ci sp]
+7.9 -2 -2 1007.5 1008.0 +38.0
21 9.01 СВ 2 3000 м мгла ясно +28.8 +7.0 25 +28 +28 жарко 1009.9 1010.0
03 10.01 В 2 3000 м мгла ясно +24.5 +7.6 34 +25 +25 комфорт 1009.8 1010.0
09 10.01 СВ 3 6000 м мгла ясно +28.0 +4.9 23 +27 +33 жарко 1012.5 1013.0
15 10.01 ЮВ 2 5000 м мгла ясно +36.5 +7.7 17 +34 +42 очень
жарко
1007.9 1008.0
18 10.01 СЗ 1 5000 м мгла ясно +34.0 +10.0 23 +33 +33 жарко 1007.6 1008.0 +37.5
21 10.01 СЗ 1 4000 м мгла ясно +27.5 +10.9 35 +28 +28 жарко 1010.7 1011.0
00 11.01 С 3 4000 м мгла ясно +26.3 +8.3 32 +26 +26 жарко 1010.5 1011.0
12 11.01 СВ 3 2500 м мгла ясно +35.0 +11.6 24 +35 +48 очень
жарко
1009.7 1010.0
15 11.01 СВ 6 2000 м мгла ясно +37.5 +10.7 20 +36 +40 очень
жарко
1007.1 1007.0
18 11.01 СВ 2 2000 м мгла ясно +34.0 +11.2 25 +34 +34 очень
жарко
1008.2 1008.0 +37.6
21 11.01 С 2 1800 м мгла ясно +29.0 +10.8 32 +29 +29 жарко 1010.6 1011.0
06 12.01 штиль 0 2000 м мгла 4/0
[Ci sp]
+21.5 +9.5 46 +23 +23 комфорт 1010.9 1011.0 +21.5
09 12.01 СВ 4 5000 м мгла 4/0
[Ci sp]
+30.5 +1.2 15 +28 +32 жарко 1011.7 1012.0
12 12.01 СВ 4 5000 м мгла 6/0
[Cs]
+36.5 +1.9 11 +33 +43 жарко 1009.5 1010.0
15 12.01 СВ 2 5000 м мгла 5/0
[Ci sp]
+38.2 +3.8 12 +35 +42 очень
жарко
1006.5 1007.0
21 12.01 СВ 2 4000 м мгла 6/0
[Cs]
+32.5 +24.3 62 +45 +45 опасность
перегрева
1010.5 1011.0
06 13.01 штиль 0 4000 м мгла ясно +20.5 +8.1 45 +21 +21 комфорт 1010.4 1010.0 +20.5
09 13.01 ЮВ 3 5000 м мгла 3/0
[Ci sp]
+29.0 +5.2 22 +28 +34 жарко 1013.6 1014.0
12 13.01 СВ 7 7000 м мгла 3/0
[Ci sp]
+35.8 +2.9 13 +33 +37 жарко 1011.3 1011.0
15 13.01 СВ 5 7000 м мгла ясно +38.1 +3.6 12 +35 +39 очень
жарко
1007.6 1008.0
18 13.01 СВ 3 7000 м мгла 3/0
[Ci sp]
+36.0 +4.6 14 +33 +33 жарко 1008.1 1008.0 +38.7
21 13.01 СВ 3 5000 м мгла ясно +32.0 +6.2 20 +30 +30 жарко 1011.4 1011.0
06 14.01 СЗ 1 5000 м мгла ясно +20.5 +6.8 41 +23 +23 комфорт 1012.3 1012.0 +20.5
21 14.01 СВ 2 7000 м мгла ясно +31.0 +5.9 21 +29 +29 жарко 1011.8 1012.0
03 15.01 штиль 0 15 км мгла 4/3 300 м
[Sc Ci sp]
+24.5 +22.4 88 +32 +32 очень
душно
1012.1 1012.0
09 15.01 СВ 3 7000 м мгла ясно +28.4 +2.6 19 +26 +33 жарко 1013.5 1014.0
12 15.01 СВ 1 7000 м мгла ясно +35.5 +5.2 15 +33 +52 опасность
солнечного
удара
1011.6 1012.0
15 15.01 СВ 2 6000 м мгла ясно +37.5 +7.2 16 +35 +44 очень
жарко
1008.7 1009.0
00 16.01 СВ 1 5000 м мгла ясно +27.0 +6.4 27 +26 +26 жарко 1011.3 1011.0

 

Местоположение метеостанции Тамале (Гана): широта 9.50 долгота -0.85 высота над уровнем моря 173 м.

В архиве по умолчанию представлена погода в Тамале за последнюю неделю. Архивные данные за месяц целиком и за предыдущие месяцы, начиная с января 2011 года, Вы можете получить, выбрав интересующий диапазон дат из раскрывающегося списка и нажав кнопку "Ввод!".


*Определитесь, кто Вы:
робот инопланетянин человек

Внимание! Время в таблицах - всемирное. Для получения местного времени необходимо прибавить поправку, которая равна 1 ч.

Смотрите также архив погоды в соседних городах и на ближайших метеорологических станциях:

Погода в Йенди (Гана) (91 км)
Погода в Навронго (Гана) (158 км)
Погода в Манго (Того) (174 км)
Погода в Боле (Гана) (186 км)
Погода в По (Буркина-Фасо) (186 км)
Погода в Ва (Гана) (191 км)
Погода в Дапаоне (Того) (201 км)
Погода в Кет-Крачи (Гана) (207 км)
Погода в Ньамтугу (Того) (216 км)
Погода в Каре (Того) (222 км)

Пояснения к столбцам:

Ветер - указаны скорость ветра в м/с - средняя за 10 мин, порывы в срок и между сроками (в фигурных скобках) и направление, откуда дует ветер: С - северный, СВ - северо-восточный, В - восточный, ЮВ - юго-восточный, Ю - южный, ЮЗ - юго-западный, З - западный, СЗ - северо-западный.
Видимость - горизонтальная дальность видимости в метрах или километрах. При видимости от 1 до 10 км при отсутствии осадков обычно наблюдается дымка, при ухудшении видимости до 1 км и менее - туман. В сухую погоду видимость может ухудшаться дымом, пылью или мглою.
Явления - указаны атмосферные явления, наблюдавшиеся в срок или в последний час перед сроком; фигурными скобками обозначены явления, наблюдавшиеся между сроками (за 1-3 часа до срока); квадратными скобками обозначены град или гололедные отложения с указанием их диаметра в мм.
Облачность - указаны через наклонную черту общая и нижняя облачность в баллах и высота нижней границы облаков в метрах; квадратными скобками обозначены формы облаков: Ci - перистые, Cs - перисто-слоистые, Cc - перисто-кучевые, Ac - высококучевые, As - высокослоистые, Sc - слоисто-кучевые, Ns - слоисто-дождевые, Cu - кучевые, Cb - кучево-дождевые. Подробнее классификацию облаков см. в Атласе облаков (PDF).
T - Температура воздуха - температура, измеренная на высоте 2 м над землей.
Td - Температура точки росы - температура, при понижении до которой содержащийся в воздухе водяной пар достигнет насыщения.
f - Относительная влажность воздуха - влажноcть воздуха, измеренная на высоте 2 м над землей.
Te - Эффективная температура - температура, которую ощущает одетый по сезону человек в тени. Характеристика душности погоды. При расчете учитывается влияние влажности воздуха и скорости ветра на теплоощущения человека.
Tes - Эффективная температура на солнце - температура, которую ощущает человек, с поправкой на солнечный нагрев. Характеристика знойности погоды. Зависит от высоты солнца над горизонтом, облачности и скорости ветра. Ночью, в пасмурную погоду, а также при ветре 12 м/с и более поправка равна нулю.
P - Атмосферное давление - приведенное к уровню моря атмосферное давление.
Po - Атмосферное давление - измеренное на уровне метеостанции атмосферное давление.
Tmin - Минимальная температура - минимум температуры воздуха на высоте 2 м над землей.
Tmax - Максимальная температура - максимум температуры воздуха на высоте 2 м над землей.
R - Количество осадков - Количество выпавших осадков за период времени, мм. При наведении курсора мыши на число - период времени, за который выпало указанное количество осадков.
R24 - Количество осадков - Количество выпавших осадков за 24 часа, мм.
S - Снежный покров - Высота снежного покрова, см. При наведении курсора мыши на число - состояние снежного покрова и степень покрытия местности в баллах.